Regional Weather Roundup
Issued by NWS

Home | Current Version | Previous Version | Text Only | Print | Product List | Glossary Off
Versions: 1 2 3 4 5 6 7 8 9 10 11 12 13 14 15 16 17 18 19 20 21 22 23 24 25 26 27 28 29 30 31 32 33 34 35 36 37 38 39 40 41 42 43 44 45 46 47 48 49 50

000
ASUS43 KLMK 282110
RWRKY
KENTUCKY REGIONAL WEATHER ROUNDUP
NATIONAL WEATHER SERVICE LOUISVILLE KY
500 PM EDT THU APR 28 2016

NOTE "FAIR" INDICATES FEW OR NO CLOUDS BELOW 12,000 FEET
WITH NO SIGNIFICANT WEATHER AND/OR OBSTRUCTIONS TO VISIBILITY.

KYZ001>023-026-027-061>063-070>075-282200-
WESTERN AND SOUTH CENTRAL KENTUCKY

CITY           SKY/WX    TMP DP  RH WIND       PRES   REMARKS
PADUCAH        SUNNY     78  49  35 W15G21    29.90S
HENDERSON      SUNNY     77  52  41 W9        29.87R
OWENSBORO      SUNNY     78  52  40 W14G20    29.88S
HOPKINSVILLE   SUNNY     79  52  38 W17       29.89F
BOWLING GREEN  MOSUNNY   80  56  43 W17G25    29.88S
GLASGOW        MOSUNNY   79  57  46 W12G20    29.88S
$$

KYZ024-025-028>034-038-045-046-053-282200-
NORTH CENTRAL KENTUCKY

CITY           SKY/WX    TMP DP  RH WIND       PRES   REMARKS
LOUISVILLE/SDF MOSUNNY   80  50  34 W18G29    29.84R
LOUISVILLE/LOU MOSUNNY   79  53  40 W15G23    29.83S
FORT KNOX      SUNNY     77  52  41 W15G26    29.84R
$$

KYZ035>037-039>044-047>052-055>060-089>105-282200-
NORTHEAST KENTUCKY

CITY           SKY/WX    TMP DP  RH WIND       PRES   REMARKS
LEXINGTON      MOSUNNY   78  58  49 SW14G28   29.84F
COVINGTON      PTSUNNY   70  62  76 W3        29.82R
FRANKFORT      PTSUNNY   80  57  45 W12       29.82S
$$

KYZ054-064>069-076>088-106>120-282200-
SOUTHEAST KENTUCKY

CITY           SKY/WX    TMP DP  RH WIND       PRES   REMARKS
JACKSON        MOSUNNY   80  54  40 W9G22     29.85F
LONDON         LGT RAIN  72  58  61 W10       29.89R
SOMERSET       MOSUNNY   73  59  60 W3        29.89S
MIDDLESBORO    PTSUNNY   79  58  48 SW5       29.87F
MONTICELLO     PTCLDY    80  59  48 W22       29.89S
$$





USA.gov is the U.S. government's official web portal to all federal, state and local government web resources and services.